Starlink 3231

operational
NORAD ID: 49744 Int'l Des: 2021-115 Owner: SPXS Country: US Constellation: starlink
LEOCIRCULAR

Über Starlink 3231

Beschreibung wird geladen...

Live-Position

3D-Globus wird geladen...

Nächste Überflüge

Höhenverlauf

Altitude vs Time

uPlot chart will show altitude changes over time

Zweizeiliger Elementsatz

1 49744U 21115W 25350.76191291 .00001208 00000-0 93963-4 0 9994
2 49744 53.2169 161.2904 0000877 101.2945 258.8146 15.08834050223019
Epoch: 16. Dez. 2025 • Age: 26 hours

Aktueller Status

Höhe 540.1 km
Geschwindigkeit 7.59 km/s
Subsatellitenpunkt 3.30°N, 60.26°W
Startdatum 2. Dez. 2021
Alter 4 years
Typ internet

Technische Details

Klassifizierung Payload
Masse 290.00 kg
Trockenmasse 270.00 kg
Gesamtmasse 290.00 kg
Länge 0.20 m
Durchmesser 2.80 m
Spannweite 9.00 m
Form Box + pan
Hersteller SPXS
Bus-Typ Starlink
Phasenstatus In Orbit
Besitzer/Staat SPXS/US

Große Konstellationen

Loading constellations...